Location: Unspecified
(0.0000°N, 0.0000°E)
Time: 07:36:51
(UTC+00:00)

ISS - Pass Details

Date: 11 November 2025
Orbit: 415 x 421 km, 51.6° (Epoch: 12 November)

Event Time Altitude Azimuth Distance (km) Brightness Sun altitude
Exits shadow 03:51:22 19° 68° (ENE) 1,064 -1.2 -26.8°
Drops below altitude 10° 03:53:20 10° 103° (ESE) 1,492 0.0 -26.3°
Sets 03:55:49 0° 121° (ESE) 2,359 1.3 -25.7°
